Elissa — WDD9058 — position and weather

sailwx.info

Track history (hours):
 
Tides and Currents Weather Stations Pressure Air Temp Water Temp Dewpoint Dewpoint Depression Visibility Wind Speed Wind Dir Waves Ship Positions

Elissa

Owner: Ingram Barge Company, Nashville, TN. More information available from US FCC via Universal Licensing System and Coast Guard Vessel Documentation Center.

Last reported at 2014-Oct-25 12:32 UTC. Time now 2014-Oct-25 16:54 UTC.
Position N 30°14' W 091°08'.

Length 26 m; draft 3.6 m.

Type: Towing. MMSI: 367306290.

Date/timePositionNaut miles runAvg speedWind from/ knotsBaromVisibWave heightAir tempDewpointWater temp
2014-Oct-25 12:32N 30°14' W 091°08'3 2.9
2014-Oct-25 11:23N 30°11' W 091°08'10 1.7
2014-Oct-25 05:31N 30°06' W 090°58'11 2.6
2014-Oct-25 01:28N 29°59' W 090°49'21 2.1
2014-Oct-24 15:27N 29°60' W 090°25'0 0.3
2014-Oct-24 14:31N 29°60' W 090°26'0 0.0
2014-Oct-24 13:33N 29°60' W 090°26'0 0.0
2014-Oct-24 12:33N 29°60' W 090°26'2 1.8
2014-Oct-24 11:33N 29°59' W 090°24'24 1.0
2014-Oct-23 12:23N 30°04' W 090°51'0 0.0
2014-Oct-23 11:20N 30°04' W 090°51'0 0.0
2014-Oct-23 10:31N 30°04' W 090°51'0 0.0
2014-Oct-23 09:31N 30°04' W 090°51'0 0.0
2014-Oct-23 08:22N 30°04' W 090°51'0 0.0
2014-Oct-23 07:32N 30°04' W 090°51'3 2.7
2014-Oct-23 06:16N 30°05' W 090°55'29 0.7
2014-Oct-21 13:14N 29°57' W 090°23'7 7.5
2014-Oct-21 12:15N 29°58' W 090°15'4 4.9
2014-Oct-21 11:25N 29°57' W 090°10'0 0.1
2014-Oct-21 10:24N 29°57' W 090°10'8 6.0
2014-Oct-21 09:07N 29°56' W 090°19'11 4.1
2014-Oct-21 06:20N 30°03' W 090°29'6 7.4
2014-Oct-21 05:33N 30°03' W 090°36'12 5.6
2014-Oct-21 03:20N 30°02' W 090°50'30 2.2
2014-Oct-20 14:09N 30°23' W 091°13'32 1.2
2014-Oct-19 11:26N 29°59' W 090°49'2 2.2
2014-Oct-19 10:28N 30°01' W 090°47'11 3.3
2014-Oct-19 07:04N 30°03' W 090°34'2 0.1
2014-Oct-18 06:10N 30°03' W 090°31'15 4.8
2014-Oct-18 03:03N 29°60' W 090°48'33 1.5
2014-Oct-17 04:33N 30°26' W 091°12'28 1.8
2014-Oct-16 13:13N 30°04' W 090°52'0 0.0
2014-Oct-16 12:31N 30°04' W 090°52'0 0.0
2014-Oct-16 11:32N 30°04' W 090°52'2 2.4
2014-Oct-16 10:33N 30°02' W 090°50'3 3.0
2014-Oct-16 09:34N 29°59' W 090°49'3 3.3
2014-Oct-16 08:33N 30°01' W 090°46'3 3.0
2014-Oct-16 07:29N 30°01' W 090°42'3 3.1
2014-Oct-16 06:28N 30°03' W 090°39'3 3.0
2014-Oct-16 05:33N 30°03' W 090°36'23 1.4
2014-Oct-15 13:05N 29°57' W 090°10'  
Track history (hours):
 
Tides and Currents Weather Stations Pressure Air Temp Water Temp Dewpoint Dewpoint Depression Visibility Wind Speed Wind Dir Waves Ship Positions

Elissa

Owner: Ingram Barge Company, Nashville, TN. More information available from US FCC via Universal Licensing System and Coast Guard Vessel Documentation Center.

Last reported at 2014-Oct-25 12:32 UTC. Time now 2014-Oct-25 16:54 UTC.
Position N 30°14' W 091°08'.

Length 26 m; draft 3.6 m.

Type: Towing. MMSI: 367306290.

Date/timePositionNaut miles runAvg speedWind from/ knotsBaromVisibWave heightAir tempDewpointWater temp
2014-Oct-25 12:32N 30°14' W 091°08'3 2.9
2014-Oct-25 11:23N 30°11' W 091°08'10 1.7
2014-Oct-25 05:31N 30°06' W 090°58'11 2.6
2014-Oct-25 01:28N 29°59' W 090°49'21 2.1
2014-Oct-24 15:27N 29°60' W 090°25'0 0.3
2014-Oct-24 14:31N 29°60' W 090°26'0 0.0
2014-Oct-24 13:33N 29°60' W 090°26'0 0.0
2014-Oct-24 12:33N 29°60' W 090°26'2 1.8
2014-Oct-24 11:33N 29°59' W 090°24'24 1.0
2014-Oct-23 12:23N 30°04' W 090°51'0 0.0
2014-Oct-23 11:20N 30°04' W 090°51'0 0.0
2014-Oct-23 10:31N 30°04' W 090°51'0 0.0
2014-Oct-23 09:31N 30°04' W 090°51'0 0.0
2014-Oct-23 08:22N 30°04' W 090°51'0 0.0
2014-Oct-23 07:32N 30°04' W 090°51'3 2.7
2014-Oct-23 06:16N 30°05' W 090°55'29 0.7
2014-Oct-21 13:14N 29°57' W 090°23'7 7.5
2014-Oct-21 12:15N 29°58' W 090°15'4 4.9
2014-Oct-21 11:25N 29°57' W 090°10'0 0.1
2014-Oct-21 10:24N 29°57' W 090°10'8 6.0
2014-Oct-21 09:07N 29°56' W 090°19'11 4.1
2014-Oct-21 06:20N 30°03' W 090°29'6 7.4
2014-Oct-21 05:33N 30°03' W 090°36'12 5.6
2014-Oct-21 03:20N 30°02' W 090°50'30 2.2
2014-Oct-20 14:09N 30°23' W 091°13'32 1.2
2014-Oct-19 11:26N 29°59' W 090°49'2 2.2
2014-Oct-19 10:28N 30°01' W 090°47'11 3.3
2014-Oct-19 07:04N 30°03' W 090°34'2 0.1
2014-Oct-18 06:10N 30°03' W 090°31'15 4.8
2014-Oct-18 03:03N 29°60' W 090°48'33 1.5
2014-Oct-17 04:33N 30°26' W 091°12'28 1.8
2014-Oct-16 13:13N 30°04' W 090°52'0 0.0
2014-Oct-16 12:31N 30°04' W 090°52'0 0.0
2014-Oct-16 11:32N 30°04' W 090°52'2 2.4
2014-Oct-16 10:33N 30°02' W 090°50'3 3.0
2014-Oct-16 09:34N 29°59' W 090°49'3 3.3
2014-Oct-16 08:33N 30°01' W 090°46'3 3.0
2014-Oct-16 07:29N 30°01' W 090°42'3 3.1
2014-Oct-16 06:28N 30°03' W 090°39'3 3.0
2014-Oct-16 05:33N 30°03' W 090°36'23 1.4
2014-Oct-15 13:05N 29°57' W 090°10'  

Dump ship's entire track history